Weather Service Report


609 
ASUS45 KCYS 230710
RWRWY 

WYOMING REGIONAL WEATHER ROUNDUP
NATIONAL WEATHER SERVICE CHEYENNE WY
100 AM MDT THU SEP 23 2021

NOTE:  "FAIR" INDICATES FEW OR NO CLOUDS BELOW 12,000 FEET
WITH NO SIGNIFICANT WEATHER AND/OR OBSTRUCTIONS TO VISIBILITY.

WYZ001-230800-
YELLOWSTONE NATIONAL PARK
  
CITY           SKY/WX    TMP DP  RH WIND       PRES   REMARKS
LK YELLOWSTONE   N/A     31  29  92 NW3       30.30R                  
W YELLOWSTONE  NOT AVBL                                               

$$
WYZ002>013-054>058-071-098>099-230800-
NORTHERN WYOMING
  
CITY           SKY/WX    TMP DP  RH WIND       PRES   REMARKS
JACKSON        FAIR      39  30  70 NE8       30.22F WCI  33          
CODY           FAIR      64  29  26 NW5       30.09R                  
GREYBULL       FAIR      50  28  42 CALM      30.01R                  
WORLAND        FAIR      47  24  40 S3        30.03R                  
SHERIDAN       FAIR      56  29  35 S3        29.99R                  
BUFFALO        FAIR      60  24  25 W14       30.04F                  
GILLETTE       FAIR      60  19  20 W12       29.97R                  
HULETT         FAIR      68  27  21 S5        29.96F                  
NEWCASTLE      FAIR      63  23  22 E10       30.00S                  

$$
WYZ014>020-022>026-101>103-230800-
CENTRAL WYOMING
  
CITY           SKY/WX    TMP DP  RH WIND       PRES   REMARKS
BIG PINEY      FAIR      40  21  46 NE3       30.27S                  
PINEDALE       FAIR      36  27  69 W7        30.28R WCI  30          
DUBOIS         FAIR      43  23  45 W14       30.24S                  
LANDER         FAIR      59  23  25 W8        30.12S                  
RIVERTON       FAIR      56  27  32 NW15      30.11S                  
CASPER         FAIR      50  23  34 SW6       30.07S                  
DOUGLAS        FAIR      48  35  60 NW3       30.05S                  

$$
WYZ021-027>030-104>119-230800-
SOUTHERN WYOMING
  
CITY           SKY/WX    TMP DP  RH WIND       PRES   REMARKS
EVANSTON       FAIR      52  20  28 S5        30.26F                  
KEMMERER       FAIR      45  19  36 N8        30.28S                  
ROCK SPRINGS   FAIR      52  17  25 W8        30.25S                  
DIXON          FAIR      40  21  46 E5        30.28S                  
RAWLINS        FAIR      54  17  23 SW13      30.22F                  
SARATOGA       CLOUDY    41  25  52 CALM      30.25F                  
LARAMIE        FAIR      44  23  43 SW8       30.23F                  
CHEYENNE       FAIR      54  24  31 W12       30.16F                  
TORRINGTON     FAIR      53  34  48 SE7       30.02F                  
PINE BLUFFS    FAIR      43  27  52 CALM      30.12F                  

$$
  


629 
ASUS45 KCYS 230710
RWRWY 

WYOMING REGIONAL WEATHER ROUNDUP
NATIONAL WEATHER SERVICE CHEYENNE WY
100 AM MDT THU SEP 23 2021

NOTE:  "FAIR" INDICATES FEW OR NO CLOUDS BELOW 12,000 FEET
WITH NO SIGNIFICANT WEATHER AND/OR OBSTRUCTIONS TO VISIBILITY.

WYZ001-230800-
...YELLOWSTONE NATIONAL PARK...
  
CITY           SKY/WX    TMP DP  RH WIND       PRES   REMARKS
LK YELLOWSTONE   N/A     31  29  92 NW3       30.30R                  
W YELLOWSTONE  NOT AVBL                                               

$$
WYZ002>013-054>058-071-098>099-230800-
...NORTHERN WYOMING...
  
CITY           SKY/WX    TMP DP  RH WIND       PRES   REMARKS
JACKSON        CLEAR     39  30  70 NE8       30.22F WCI  33          
CODY           MOCLDY    64  29  26 NW5       30.09R                  
GREYBULL       PTCLDY    50  28  42 CALM      30.01R                  
WORLAND        MOCLDY    47  24  40 S3        30.03R                  
SHERIDAN       PTCLDY    56  29  35 S3        29.99R                  
BUFFALO        PTCLDY    60  24  25 W14       30.04F                  
GILLETTE       PTCLDY    60  19  20 W12       29.97R                  
HULETT         PTCLDY    68  27  21 S5        29.96F                  
NEWCASTLE      CLEAR     63  23  22 E10       30.00S                  

$$
WYZ014>020-022>026-101>103-230800-
...CENTRAL WYOMING...
  
CITY           SKY/WX    TMP DP  RH WIND       PRES   REMARKS
BIG PINEY      PTCLDY    40  21  46 NE3       30.27S                  
PINEDALE       PTCLDY    36  27  69 W7        30.28R WCI  30          
DUBOIS         CLEAR     43  23  45 W14       30.24S                  
LANDER         PTCLDY    59  23  25 W8        30.12S                  
RIVERTON       PTCLDY    56  27  32 NW15      30.11S                  
CASPER         CLEAR     50  23  34 SW6       30.07S                  
DOUGLAS        CLEAR     48  35  60 NW3       30.05S                  

$$
WYZ021-027>030-104>119-230800-
...SOUTHERN WYOMING...
  
CITY           SKY/WX    TMP DP  RH WIND       PRES   REMARKS
EVANSTON       CLEAR     52  20  28 S5        30.26F                  
KEMMERER       CLEAR     45  19  36 N8        30.28S                  
FORT BRIDGER   CLEAR     54  17  23 NW6       30.29S                  
ROCK SPRINGS   CLEAR     52  17  25 W8        30.25S                  
DIXON          CLEAR     40  21  46 E5        30.28S                  
RAWLINS        CLEAR     54  17  23 SW13      30.22F                  
SARATOGA       CLOUDY    41  25  52 CALM      30.25F                  
LARAMIE        CLEAR     44  23  43 SW8       30.23F                  
CHEYENNE       CLEAR     54  24  31 W12       30.16F                  
TORRINGTON     CLEAR     53  34  48 SE7       30.02F                  
PINE BLUFFS    CLEAR     43  27  52 CALM      30.12F                  

$$
  

Return to Home page


Western Regional Climate Center, wrcc@dri.edu